Regional Weather Roundup
Issued by NWS

Home | Current Version | Previous Version | Graphics & Text | Print | Product List | Glossary On
Versions: 1 2 3 4 5 6 7 8 9 10 11 12 13 14 15 16 17 18 19 20 21 22 23 24 25 26 27 28 29 30 31 32 33 34 35 36 37 38 39 40 41 42 43 44 45 46 47 48 49
000
ASUS45 KTFX 021710
RWRMT
MONTANA REGIONAL WEATHER ROUNDUP
NATIONAL WEATHER SERVICE GREAT FALLS MT
1100 AM MDT THU JUL 02 2015

NOTE: "FAIR" INDICATES FEW OR NO CLOUDS BELOW 12000 FEET WITH NO
SIGNIFICANT WEATHER AND/OR OBSTRUCTIONS TO VISIBILITY.

MTZ001>007-043-021800-
WEST OF THE DIVIDE

CITY           SKY/WX    TMP DP  RH WIND       PRES   REMARKS
KALISPELL      SUNNY     80  52  37 SE3       30.10F
MISSOULA       SUNNY     80  51  36 SE7       30.12F
BUTTE          SUNNY     71  50  47 N5        30.26F
MULLAN PASS    SUNNY     69  49  48 VRB6      30.27S
DEER LODGE       N/A     75  54  46 SE3       30.24F
EUREKA           N/A     79  52  38 CALM      30.10F
HAMILTON         N/A     77  48  36 NW6       30.13F
PLAINS           N/A     82  54  38 CALM      30.08F
RONAN            N/A     81  56  42 CALM      30.15F
THOMPSON FALLS   N/A     82  50  32 SW5       30.10F
$$

MTZ008-052>055-021800-
SOUTHWEST MONTANA

CITY           SKY/WX    TMP DP  RH WIND       PRES   REMARKS
BOZEMAN        SUNNY     74  55  51 VRB6      30.20F
DILLON         SUNNY     72  52  49 VRB3      30.23F
W YELLOWSTONE  SUNNY     73  46  38 CALM      30.29F
THREE FORKS      N/A     77  67  71 N2        30.17F
$$

MTZ009-010-012-014-046-048-049-054-021800-
EAST SLOPES AND CENTRAL MONTANA

CITY           SKY/WX    TMP DP  RH WIND       PRES   REMARKS
CUT BANK       SUNNY     73  50  44 CALM      30.20F
GREAT FALLS    SUNNY     74  52  46 N7        30.19F
MALMSTROM AFB  SUNNY     73  51  46 W2        30.20F
HELENA         SUNNY     78  51  38 NE8       30.17F
CONRAD           N/A     74  59  59 CALM      30.21F
$$

MTZ011-013-016-021-045-047-050-051-021800-
NORTH CENTRAL MONTANA

CITY           SKY/WX    TMP DP  RH WIND       PRES   REMARKS
HAVRE          MOSUNNY   73  56  54 NW6       30.16F
LEWISTOWN      SUNNY     72  54  53 W9        30.22F
CHINOOK          N/A     73  57  56 W10       30.15F
FORT BENTON      N/A     73  55  53 NW6       30.19F
$$

MTZ017>020-022>027-061-062-021800-
NORTHEAST MONTANA

CITY           SKY/WX    TMP DP  RH WIND       PRES   REMARKS
GLASGOW        PTSUNNY   71  58  63 NW15G21   30.09F HAZE
JORDAN           N/A     75  56  51 N16       30.11F
SIDNEY         SUNNY     72  61  68 CALM      30.06F
WOLF POINT     MOSUNNY   78  60  53 W8        30.06F
MALTA            N/A     75  58  55 NW9       30.08F
PLENTYWOOD       N/A     73  61  64 N8        30.06S
SCOBEY           N/A     68  60  75 NW6       30.07F
$$

MTZ028>42-056>058-021800-
SOUTHCENTRAL AND SOUTHEAST MONTANA

CITY           SKY/WX    TMP DP  RH WIND       PRES   REMARKS
BAKER          MOSUNNY   71  58  63 NW17G25   30.11S
BILLINGS       MOSUNNY   77  53  43 E8        30.18F
LIVINGSTON     SUNNY     75  51  43 CALM      30.20F
MILES CITY     MOSUNNY   78  56  46 N20G25    30.10S
EKALAKA          N/A     71  55  56 NW14      30.10S
FORSYTH          N/A     75  55  50 NW10G16   30.11S
LAUREL           N/A     76  54  46 NE6       30.15F
ROUNDUP          N/A     77  51  39 N14       30.07F
$$

REGIONAL REPORTS...DAKOTAS

CITY           SKY/WX    TMP DP  RH WIND       PRES   REMARKS
WILLISTON      MOSUNNY   76  60  57 N10       30.04F HAZE
MINOT          PTSUNNY   72  61  68 NW8       29.98S HAZE
DICKINSON      SUNNY     71  59  65 NW9       30.04S
BEACH          FAIR      70  64  83 NW10      30.09S
CROSBY         FAIR      72  68  88 NW12      30.04S
BISMARCK       MOSUNNY   75  64  68 VRB6      29.99F HAZE
GRAND FORKS    SUNNY     74  61  63 S12       29.94F
FARGO          SUNNY     73  55  53 S15       29.98F
BUFFALO SD       N/A     74  56  53 NW20G28   30.03F
RAPID CITY     MOSUNNY   76  62  62 N20G28    30.10S
$$

REGIONAL REPORTS...WYOMING/IDAHO/WASHINGTON

CITY           SKY/WX    TMP DP  RH WIND       PRES   REMARKS
GILLETTE       MOSUNNY   74  56  53 N8        30.18S
SHERIDAN       MOSUNNY   78  55  44 N6        30.17F
BUFFALO WY     PTSUNNY   71  56  58 VRB6      30.23S
CODY           SUNNY     73  52  46 NE13      30.23S
YELLOWSTONE LA   N/A     70  43  37 VRB3      30.37F
IDAHO FALLS    SUNNY     79  52  38 N9        30.14F
SALMON         SUNNY     75  43  31 NW3       30.12F
BOISE          SUNNY     85  51  31 W7        30.01F
SPOKANE        SUNNY     82  50  32 NE7       30.05S
$$

REGIONAL REPORTS...ALBERTA

CITY           SKY/WX    TMP DP  RH WIND       PRES   REMARKS
EDMONTON       MOSUNNY   77  54  44 S5        30.07F
CALGARY        MOSUNNY   72  54  53 S5        30.17F
LETHBRIDGE     MOSUNNY   75  55  50 CALM      30.17F
MEDICINE HAT   MOSUNNY   75  59  57 SW3       30.14F
CARDSTON         N/A     73  57  56 E3          N/A
MILK RIVER       N/A     75  54  46 NE3         N/A
ONEFOUR          N/A     73  54  49 NW10        N/A
$$

REGIONAL REPORTS...SASKATCHEWAN

CITY           SKY/WX    TMP DP  RH WIND       PRES   REMARKS
SWIFT CURRENT  MOSUNNY   66  61  82 W9        30.11F HAZE
REGINA         MOSUNNY   75  64  69 NW8       30.03F
SASKATOON      PTSUNNY   75  61  60 W7        30.05F SMOKE
CYPRESS HILLS    N/A     64  55  72 NW6         N/A
VAL MARIE        N/A     70  59  68 N15G21      N/A
ROCKGLEN         N/A     68  61  77 NW8         N/A
$$



USA.gov is the U.S. government's official web portal to all federal, state and local government web resources and services.